RH
39 42 48 47 39 28 30 31 32 31 28 28 36 40 78 78 75 78 77 76 75 73 70 74 79 86 93 98 98 100 78 66 64 68 73 78 72 68 69 69 68 68 69 68
42 44 36 34 42 38 38 39 44 39 37 36 40 81 89 79 75 74 75 76 75 72 68 72 78 85 91 98 99 99 97 82 74 69 69 72 68 66 65 68 70 68 68 68
45 37 43 36 42 43 46 48 46 38 40 41 43 66 83 76 68 65 66 67 70 73 74 73 78 84 91 97 100 100 100 98 86 79 73 72 69 69 70 72 71 68 66 65
47 42 44 45 45 43 47 44 41 44 47 55 42 51 77 78 75 73 70 70 72 71 69 73 78 84 92 98 100 100 100 100 100 95 82 74 68 70 67 67 66 67 64 61
41 45 49 51 48 44 45 45 49 49 55 55 54 56 71 73 78 78 74 70 69 68 68 72 78 83 89 96 100 100 100 99 100 100 93 82 75 71 67 66 67 67 65 61
50 42 40 43 44 43 44 48 59 66 61 72 61 56 78 85 85 76 71 69 67 66 66 71 76 80 85 92 97 98 100 100 100 100 100 99 86 77 71 68 69 67 64 61
55 48 42 41 45 43 44 57 68 60 80 71 61 59 89 85 82 78 78 73 66 64 66 69 76 80 83 89 95 96 99 100 100 100 100 100 100 96 83 75 69 66 67 63
80 63 58 55 47 48 54 58 69 64 71 55 59 69 90 81 65 63 63 65 63 66 65 70 76 82 86 89 95 99 100 99 100 100 100 100 100 100 100 98 84 74 68 65
93 78 67 54 56 48 54 62 51 60 62 76 71 90 88 60 63 65 64 67 72 71 69 70 75 79 86 92 97 100 100 100 100 100 100 100 100 100 100 100 100 96 84 75
82 72 65 60 54 54 55 61 65 71 78 92 75 90 80 74 74 68 74 80 75 72 72 74 76 80 82 87 94 98 100 100 99 99 96 97 97 97 98 99 100 100 98 91
60 73 56 38 88 78 76 83 81 82 82 88 89 77 71 78 78 79 77 76 79 76 78 77 80 82 85 88 91 94 99 100 98 94 96 95 95 96 96 96 96 99 100 100
52 82 57 77 73 61 71 83 69 87 88 73 87 83 83 85 78 75 82 73 71 68 71 76 80 81 85 89 92 93 99 100 100 96 96 95 95 95 95 95 96 96 97 98
47 55 46 79 88 52 75 77 84 87 87 95 89 79 74 75 77 84 84 82 82 70 72 80 82 84 90 93 90 91 91 97 96 97 95 97 95 94 95 95 95 95 96 96
49 83 48 42 62 68 82 82 80 83 88 76 89 98 91 91 92 88 90 90 91 89 88 85 86 87 88 91 88 89 78 77 71 91 91 98 96 95 95 95 95 95 95 96
64 98 79 87 56 59 93 85 83 96 88 82 83 99 95 97 99 92 98 93 86 84 83 85 87 86 88 91 90 85 78 73 62 68 82 86 80 85 95 94 95 95 95 95
63 69 71 75 60 64 96 91 83 83 98 100 100 99 92 92 92 89 88 95 90 86 84 86 87 87 90 92 93 89 81 73 61 62 71 67 74 60 69 71 56 68 88 93
70 87 88 93 66 70 93 98 85 90 92 97 92 92 95 87 80 85 91 93 91 87 86 89 88 89 89 88 83 77 74 68 63 66 74 68 70 65 67 73 60 51 52 50
79 88 93 100 87 99 94 94 87 91 99 97 89 89 97 96 89 89 92 94 90 84 84 86 89 89 84 81 73 73 74 65 59 64 78 66 64 71 66 71 67 57 60 64
77 94 98 97 99 86 89 93 96 93 92 100 100 92 93 94 91 84 100 93 94 86 84 85 83 85 82 77 75 79 75 62 64 72 70 65 72 71 68 66 63 68 75 71
47 62 91 97 97 99 90 94 96 93 94 94 100 98 100 98 89 79 87 73 80 81 82 88 85 81 80 76 78 84 70 70 71 76 69 70 73 71 68 69 67 67 68 63
79 84 96 100 100 98 92 97 96 90 81 93 98 96 100 100 88 76 78 84 84 85 89 86 83 86 86 82 87 82 79 80 74 71 74 73 71 71 71 68 67 67 72 74
95 99 100 98 100 98 96 95 92 88 96 98 100 98 100 94 91 89 86 87 89 90 88 88 93 94 89 92 77 79 77 72 77 79 78 77 76 75 71 70 74 82 81 74
94 96 97 93 95 94 97 96 94 99 95 98 100 95 97 99 93 88 90 91 86 88 90 90 84 92 86 73 75 74 76 80 81 83 82 86 86 82 80 88 83 77 76 85
88 96 98 75 93 87 98 100 100 100 100 97 99 98 98 100 94 93 87 86 88 88 84 79 91 82 75 76 76 80 83 83 86 90 90 92 92 91 87 87 86 89 94 97
89 85 98 86 82 82 94 99 93 98 99 100 90 95 98 96 90 91 91 91 89 88 80 94 78 77 76 80 87 88 81 86 92 93 94 97 92 93 95 93 96 99 100 97
96 96 93 81 82 88 84 87 93 100 96 93 98 91 90 90 92 93 93 92 89 86 92 79 81 82 83 88 91 87 85 89 96 96 91 96 92 95 94 96 97 90 87 85
Wind_Speed
2 3 7 8 6 3 5 3 3 2 3 2 6 1 14 14 21 20 20 20 21 21 27 32 35 38 41 44 39 24 18 22 26 26 24 22 21 19 18 17 15 14 14 14
4 7 5 5 4 4 2 1 5 5 2 6 4 7 13 17 18 18 18 19 21 22 22 33 36 40 41 40 42 40 19 15 21 26 26 20 23 21 20 17 16 16 16 16
6 3 5 6 4 5 4 5 5 8 1 2 4 4 4 12 16 17 18 18 20 21 21 24 34 37 40 42 41 39 37 15 13 21 22 20 16 18 19 20 19 18 16 16
4 2 4 4 5 7 3 8 6 4 3 3 2 3 4 10 13 18 18 18 19 21 21 27 32 36 39 39 40 41 38 35 21 6 16 21 19 19 20 22 20 18 17 16
4 4 3 3 5 8 6 4 6 4 4 1 2 2 4 5 9 16 16 17 18 18 19 21 29 31 33 38 38 39 39 40 35 24 8 13 11 12 12 16 17 18 17 17
5 2 2 4 2 4 5 5 5 4 3 2 7 6 3 4 6 11 13 15 16 18 18 25 27 30 34 38 41 40 41 40 40 34 29 18 9 11 10 10 13 16 18 18
4 1 1 1 2 1 3 5 2 1 0 5 1 2 6 8 11 10 11 13 16 17 18 21 28 31 34 37 38 38 40 41 41 39 35 30 23 11 8 9 10 12 15 17
2 1 5 8 2 1 4 6 4 5 3 2 2 3 4 11 9 10 11 12 15 17 17 21 27 27 29 32 34 36 37 38 40 39 37 34 28 25 16 8 7 9 11 14
1 3 5 2 4 3 2 3 1 1 1 1 4 4 5 7 10 11 13 14 16 16 17 20 26 27 28 29 31 32 34 35 36 38 38 37 34 30 24 20 11 7 7 10
1 3 2 5 3 4 3 3 1 2 3 4 2 4 5 5 8 9 11 13 13 14 15 18 22 25 26 28 28 30 30 30 32 34 36 35 34 31 27 24 22 15 9 7
2 1 5 3 7 3 5 4 4 1 2 3 2 2 3 3 6 7 8 10 11 13 13 17 20 21 22 23 28 29 30 30 34 32 33 33 33 32 30 29 26 23 17 12
1 3 1 3 3 8 5 3 3 2 2 1 2 2 5 6 6 6 7 8 10 11 12 16 18 20 22 24 25 26 28 29 29 31 29 31 31 31 30 30 28 27 24 19
2 1 2 1 3 1 6 3 2 1 2 3 3 1 4 6 6 5 6 8 9 11 12 15 17 19 20 22 24 25 26 28 29 30 28 28 31 31 30 28 27 26 25 24
1 2 4 5 2 3 3 2 2 3 3 3 3 1 2 5 6 7 6 5 6 7 8 11 15 18 20 21 23 24 27 27 27 24 28 25 28 30 29 28 27 25 24 23
3 3 2 2 1 4 2 2 1 4 3 4 3 2 4 5 5 5 4 5 6 10 10 10 14 19 20 21 23 24 26 27 26 26 22 22 24 25 27 28 28 26 24 24
4 2 2 2 7 7 4 3 4 3 2 3 2 3 5 5 4 5 6 4 6 9 10 10 16 19 20 23 23 24 25 27 27 25 22 22 24 24 24 26 26 26 26 25
2 2 3 3 3 5 2 2 1 2 2 1 2 2 4 5 10 7 5 6 6 9 9 10 17 22 24 26 27 26 27 26 26 23 19 21 22 24 24 23 25 24 24 22
3 3 3 3 1 1 1 2 2 2 3 3 2 4 4 6 8 12 4 3 7 12 11 17 20 25 27 27 26 26 24 25 26 24 19 23 24 22 23 21 23 23 21 22
3 2 3 3 2 0 3 3 1 3 2 2 1 6 5 7 7 4 2 2 4 17 23 25 28 27 27 26 24 25 25 28 26 20 22 25 21 22 22 22 24 21 19 19
5 5 3 2 3 4 4 2 1 3 3 3 2 4 4 6 4 4 4 20 22 25 25 26 26 26 26 25 25 23 28 25 24 20 25 24 22 22 23 22 21 20 19 19
3 3 3 0 2 2 3 3 1 4 3 2 3 5 2 2 4 8 22 20 21 23 24 24 23 22 23 24 23 23 21 19 20 23 22 23 24 25 23 22 21 21 20 17
2 2 1 2 3 4 2 1 3 2 2 2 3 4 5 8 11 10 15 16 18 18 19 19 19 18 20 20 21 19 18 22 23 21 22 22 24 24 22 23 23 20 18 21
1 2 2 3 2 3 0 1 2 3 3 3 2 6 6 10 9 11 11 18 19 19 20 19 18 18 20 21 18 21 23 24 23 23 23 22 21 21 21 21 21 22 21 20
4 1 1 3 3 3 3 2 1 3 3 4 9 7 8 9 10 11 15 16 18 19 20 20 19 21 20 19 21 23 24 25 24 24 23 22 21 22 19 21 19 19 19 19
3 3 2 4 3 4 4 4 3 3 7 7 14 12 10 12 12 14 15 17 19 20 20 19 21 20 22 23 23 23 24 26 24 24 23 23 21 22 22 22 20 21 20 22
0 3 2 4 5 5 6 4 4 3 5 11 10 11 14 15 14 17 17 18 20 22 18 21 21 22 25 25 25 26 26 24 23 23 22 23 25 24 22 22 24 24 23 24
Wind_Direction
3 135 213 188 195 132 128 174 245 231 229 20 227 86 27 42 47 39 34 27 22 18 9 11 9 9 9 13 10 359 274 249 231 219 213 215 216 218 220 218 218 222 220 219
48 242 195 151 168 180 151 234 261 278 237 156 167 79 63 57 59 51 39 30 21 13 11 10 10 11 11 8 8 9 347 274 244 228 217 215 217 223 225 225 224 223 223 224
166 204 95 137 146 163 206 189 213 224 48 244 135 144 134 74 61 50 42 34 28 20 12 8 9 11 10 10 5 5 14 349 267 240 227 220 219 225 221 222 223 224 226 227
231 265 162 181 197 156 250 208 199 152 113 222 196 272 133 113 62 46 32 29 23 17 14 13 10 10 10 8 8 10 14 21 21 279 239 227 219 218 228 229 228 227 229 229
245 161 147 164 215 162 220 129 165 152 172 84 250 166 115 193 26 28 27 25 23 21 18 14 12 11 10 11 11 11 14 22 24 29 339 251 247 253 255 243 234 232 232 233
247 298 255 215 135 178 138 84 50 54 108 251 213 182 121 28 13 24 25 23 20 16 17 17 15 14 14 13 14 13 13 15 20 24 27 25 333 281 271 264 254 242 237 236
322 248 308 55 126 54 94 71 324 316 167 233 273 178 57 82 57 44 25 23 20 18 16 14 12 12 11 12 12 12 13 12 13 19 22 22 18 8 322 295 279 268 258 250
36 304 3 333 36 206 173 162 172 238 206 235 23 223 109 93 72 52 48 34 25 20 17 15 14 10 10 11 11 12 12 12 11 13 16 20 23 19 15 351 315 293 280 271
42 266 329 25 335 10 150 169 193 175 85 110 152 110 137 94 56 38 27 24 22 18 14 11 10 11 8 7 9 11 12 12 12 13 13 15 19 22 20 18 8 328 300 287
152 304 73 296 338 24 60 9 225 15 262 247 245 154 119 20 18 25 22 22 14 12 14 10 10 7 8 8 6 8 11 12 13 12 15 13 14 18 20 23 19 15 355 310
30 98 302 5 17 334 348 23 17 95 48 252 269 143 52 45 25 23 26 32 17 11 6 3 3 3 5 9 10 8 6 6 11 15 12 12 12 14 17 19 18 15 13 13
29 104 225 83 328 75 66 61 64 152 277 10 269 217 38 56 49 43 35 24 13 11 0 358 358 360 4 4 4 7 5 5 3 9 8 12 12 11 13 13 13 13 10 13
144 159 64 166 269 101 62 5 9 93 89 225 148 249 63 29 18 21 21 9 359 358 354 350 354 355 354 355 357 357 359 1 3 2 7 3 7 8 6 6 7 9 6 8
136 109 161 192 164 118 139 83 50 104 120 224 230 225 299 348 353 344 345 347 339 335 333 341 345 346 347 348 351 350 354 359 358 358 1 0 0 1 360 360 360 2 3 4
81 140 91 185 250 93 97 63 89 179 198 167 246 195 231 278 270 283 289 323 348 346 344 340 338 339 341 343 345 346 348 353 354 354 355 354 352 355 352 355 355 355 358 358
2 113 91 328 54 104 96 16 89 90 126 88 143 284 212 281 289 300 303 334 348 335 330 323 327 333 335 337 338 339 341 345 347 345 344 346 344 347 346 345 347 350 350 352
73 99 71 278 136 139 40 287 28 124 77 82 230 256 320 320 326 316 308 321 320 323 323 320 322 325 329 334 337 338 338 340 342 342 338 340 338 338 338 336 335 342 343 342
134 113 102 204 48 346 156 33 49 106 74 20 36 333 296 285 287 299 277 204 332 336 325 321 319 325 330 332 334 335 334 336 338 335 331 335 333 330 331 329 326 331 334 333
57 119 84 121 191 325 342 307 79 111 286 236 256 318 307 308 316 319 232 256 286 313 313 316 325 325 327 329 334 333 331 333 334 333 329 329 325 325 324 321 321 323 323 324
58 41 109 78 130 235 224 282 168 127 296 258 170 280 292 339 3 264 290 325 312 311 315 316 321 322 324 331 333 330 328 329 330 328 324 323 320 318 317 316 314 315 315 311
10 13 115 107 204 311 248 270 162 83 240 257 206 251 235 255 225 279 304 300 300 305 309 318 318 315 319 326 328 321 317 317 321 318 318 317 318 317 316 313 313 313 311 309
98 76 72 69 57 289 208 15 140 200 277 237 244 245 254 266 284 288 292 298 305 308 312 315 313 314 319 322 320 315 314 316 317 316 313 312 313 315 312 312 311 311 309 310
344 174 196 173 213 217 228 149 185 155 194 261 206 259 254 282 288 296 298 304 310 312 313 315 315 313 315 317 321 316 315 317 316 314 311 309 309 308 308 308 307 306 306 305
4 348 202 22 331 300 311 314 249 174 232 250 252 265 267 268 284 289 304 306 309 311 313 317 316 314 312 313 315 312 315 315 313 310 311 311 309 308 308 304 301 298 295 295
215 350 2 275 307 344 323 248 223 276 282 274 298 278 270 287 301 301 304 305 307 308 310 312 311 308 309 312 310 311 313 314 311 311 310 308 306 305 303 298 291 291 289 284
49 195 115 243 213 187 252 269 283 273 286 296 293 301 301 298 295 302 299 300 304 302 312 310 307 306 308 308 305 308 312 312 309 307 307 307 306 302 299 296 296 298 297 295